Regional Weather Roundup
Issued by NWS Kansas City/Pleasant Hill, MO

Home | Current Version | Previous Version | Text Only | Print | Product List | Glossary On
Versions: 1 2 3 4 5 6 7 8 9 10 11 12 13 14 15 16 17 18 19 20 21 22 23 24 25 26 27 28 29 30 31 32 33 34 35 36 37 38 39 40 41 42 43 44 45 46 47 48 49 50
000
ASUS43 KEAX 300610
RWREAX

WEATHER ROUNDUP FOR EASTERN KANSAS AND NORTHWEST MISSOURI
NATIONAL WEATHER SERVICE KANSAS CITY/PLEASANT HILL MO
100 AM CDT SAT JUL 30 2016

KSZ040-057-103>105-MOZ028-029-037-043-300700-
...KANSAS CITY METROPOLITAN AREA...

CITY           SKY/WX    TMP DP  RH WIND       PRES   REMARKS
K.C. INTL      CLEAR     67  60  78 NE6       30.03R
6HR MIN TEMP:  67; 6HR MAX TEMP:  81;

K.C. DOWNTOWN  CLEAR     72  62  71 NE6       30.02R
6HR MIN TEMP:  72; 6HR MAX TEMP:  84;

LEES SUMMIT    CLEAR     71  62  73 N6        30.03R
6HR MIN TEMP:  70; 6HR MAX TEMP:  82;

OLATHE - IXD   CLEAR     70  64  81 N7        30.03S
6HR MIN TEMP:  68; 6HR MAX TEMP:  82;

OLATHE - OJC   CLEAR     72  62  71 N5        30.03R
6HR MIN TEMP:  72; 6HR MAX TEMP:  83;

LAWRENCE       CLEAR     65  64  97 CALM      30.02S

$$

MOZ001>008-011>017-020>025-030>033-038>040-044>046-053-054-300700-
...NORTHERN AND CENTRAL MISSOURI...

CITY           SKY/WX    TMP DP  RH WIND       PRES   REMARKS
ST. JOSEPH     PTCLDY    66  62  87 CALM      30.02S
6HR MIN TEMP:  65; 6HR MAX TEMP:  81;

MOSBY          CLEAR     64  63  94 CALM      30.02S
WHITEMAN AFB   CLEAR     70  70  99 W2        29.99S
6HR MIN TEMP:  69; 6HR MAX TEMP:  81;

CLINTON        CLEAR     68  66  94 CALM      30.01S
SEDALIA        CLEAR     71  65  81 CALM      30.01S
6HR MIN TEMP:  70; 6HR MAX TEMP:  83;

WARSAW         NOT AVBL
CHILLICOTHE      N/A     65  63  93 CALM      30.02R
6HR MIN TEMP:  65; 6HR MAX TEMP:  83;

KIRKSVILLE     CLEAR     62  61  96 W3        30.00S
6HR MIN TEMP:  62; 6HR MAX TEMP:  79;


$$

MOZ041-047>049-056>058-063>065-088>090-097-300700-
...EASTERN AND SOUTHERN MISSOURI...

CITY           SKY/WX    TMP DP  RH WIND       PRES   REMARKS
ST. LOUIS INTL PTCLDY    76  67  73 CALM      29.96S
6HR MIN TEMP:  76; 6HR MAX TEMP:  83;

SPIRIT OF STL  CLEAR     70  69  97 CALM      29.95S
COLUMBIA       CLEAR     69  65  86 CALM      29.99S
JEFFERSON CITY CLEAR     70  67  90 CALM      29.98R
ROLLA          CLEAR     69  66  90 CALM      29.99S
OSAGE BEACH    CLEAR     71  70  96 CALM      30.01R
SPRINGFIELD    PTCLDY    72  68  87 CALM      30.01S
BRANSON        CLOUDY    72  72 100 CALM      30.02S FOG
JOPLIN         CLEAR     72  69  90 E3        30.00F
WEST PLAINS    CLOUDY    70  67  90 W3        30.02S

$$

IAZ060-094-KSZ022-034>040-054-083-096-NEZ052-066-093-300700-
...KANSAS...SOUTHEAST NEBRASKA AND IOWA...

CITY           SKY/WX    TMP DP  RH WIND       PRES   REMARKS
TOPEKA         PTCLDY    70  65  84 CALM      30.02S
6HR MIN TEMP:  69; 6HR MAX TEMP:  83;

MANHATTAN      CLEAR     69  65  86 CALM      30.02S
EMPORIA        CLEAR     70  67  90 E5        30.01F
CHANUTE        CLEAR     71  69  93 CALM      30.00F
WICHITA        CLOUDY    74  68  81 CALM      30.02R
OMAHA          CLOUDY    66  61  84 N5        30.04S
LINCOLN        CLEAR     69  63  81 SE5       30.06R
FALLS CITY     CLEAR     67  64  90 CALM      30.03R
LAMONI         CLEAR     62  62 100 W6        30.02R
DES MOINES     CLOUDY    69  65  86 NE5       30.00S

$$




USA.gov is the U.S. government's official web portal to all federal, state and local government web resources and services.